Regional Weather Roundup
Issued by NWS

Home | Current Version | Previous Version | Text Only | Print | Product List | Glossary Off
Versions: 1 2 3 4 5 6 7 8 9 10 11 12 13 14 15 16 17 18 19 20 21 22 23 24 25 26 27 28 29 30 31 32 33 34 35 36 37 38 39 40 41 42 43 44 45 46 47 48 49 50

000
ASUS43 KMPX 151110
RWRMN
WEATHER ROUNDUP FOR MINNESOTA
NATIONAL WEATHER SERVICE TWIN CITIES/CHANHASSEN MN
500 AM CST FRI DEC 15 2017


NOTE: "FAIR" INDICATES FEW OR NO CLOUDS BELOW 12,000 FEET WITH NO
SIGNIFICANT WEATHER AND/OR OBSTRUCTIONS TO VISIBILITY. N/A MEANS
CURRENT SKY AND/OR WEATHER CONDITIONS ARE NOT AVAILABLE.

MNZ060>063-068>070-151200-
   Twin Cities Metro

CITY           SKY/WX    TMP DP  RH WIND       PRES   REMARKS
TWIN CITIES    CLOUDY    24  20  84 NW3       29.91F
ST PAUL        CLOUDY    24  19  81 W8        29.93F WCI  15
CRYSTAL        CLOUDY    23  17  78 CALM      29.90F
BLAINE         CLOUDY    23  19  86 N3        29.90F
LAKEVILLE      CLOUDY    21  19  93 CALM      29.90F
EDEN PRAIRIE   CLOUDY    24  19  81 CALM      29.90F
SOUTH ST PAUL  CLOUDY    24  19  83 CALM      29.91F
LAKE ELMO      FLURRIES  23  19  86 NW5       29.91F WCI  17
$$
MNZ001>005-007-008-013>017-022>024-027-028-151200-
   Northwest Minnesota

CITY           SKY/WX    TMP DP  RH WIND       PRES   REMARKS
BEMIDJI        FLURRIES   8   4  84 N3        29.87F
HALLOCK        CLOUDY    12  10  92 CALM      29.91F
ROSEAU         CLOUDY     9   3  78 CALM      29.90S
WARROAD        CLOUDY     9   3  78 NW3       29.90S
THIEF RVR FALL CLOUDY     9   7  92 CALM      29.91F
CROOKSTON      MOCLDY    16  12  86 CALM      29.93F
FOSSTON        CLOUDY     7   3  85 CALM      29.89F
DETROIT LAKES  CLOUDY    18  16  93 N3        29.90S
MOORHEAD       CLOUDY    19  16  86 CALM      29.93F
PARK RAPIDS    CLOUDY    15  10  80 NW8       29.86F WCI   4
MAHNOMEN       CLOUDY    10   7  90 CALM      29.89F
$$
MNZ006-009>011-018-025>026-151200-
   North Central Minnesota

CITY           SKY/WX    TMP DP  RH WIND       PRES   REMARKS
BAUDETTE       CLOUDY     9   4  80 N6        29.87F WCI  -1
FLAG ISLAND    CLOUDY     7   1  78 NE7       29.88F WCI  -5
INTL FALLS     CLOUDY     8   2  76 NW9       29.87F WCI  -5
WASKISH        CLOUDY     9   5  85 NW7       29.89F WCI  -3
BIG FORK       FLURRIES   9   3  78 NW3       29.86F
LONGVILLE      FLURRIES  12   9  85 NW3       29.87F
GRAND RAPIDS   FLURRIES  10   5  80 W8        29.88S WCI  -2
CRANE LAKE     LGT SNOW   9   5  85 NW3       29.87F
ORR            CLOUDY     9   3  78 NW8       29.83S WCI  -4
COOK           FLURRIES   9   5  85 NW7       29.85F WCI  -3
WALKER         FLURRIES  13   8  81 NW6       29.87S WCI   4
$$
MNZ012-019>021-037-151200-
   Northeast Minnesota

CITY           SKY/WX    TMP DP  RH WIND       PRES   REMARKS
DULUTH         FLURRIES  11   6  81 NW12      29.83S WCI  -3
ELY            FLURRIES   9   3  78 NW9       29.81S WCI  -5
HIBBING        LGT SNOW  10   5  80 NW10      29.85S WCI  -4
EVELETH        FLURRIES  10   3  74 NW5       29.85S WCI   1
DULUTH HARBOR  FLURRIES  16  10  79 W10       29.91R WCI   3
TWO HARBORS    FLURRIES  14   7  73 NW8G16    29.82R WCI   3
SILVER BAY     PTCLDY    10   7  85 NW7       29.81R WCI   0
GRAND MARAIS     N/A     14   5  67 NW16G28   29.79F WCI  -2
G MARAIS ARPRT FLURRIES   7   0  72 NW8       29.73R WCI  -6
$$
MNZ029>031-032-039>041-046>048-054>057-064-151200-
   West Central Minnesota

CITY           SKY/WX    TMP DP  RH WIND       PRES   REMARKS
FERGUS FALLS   CLOUDY    19  16  86 CALM      29.94F
WHEATON        CLOUDY    25  21  86 N6        29.94F WCI  18
MORRIS         CLOUDY    25  23  93 N9        29.90R FOG     WCI  15
ALEXANDRIA     CLOUDY    22  18  85 N7        29.89F WCI  13
ELBOW LAKE     CLOUDY    22  19  87 N5        29.90F WCI  16
WADENA         CLOUDY    16  14  93 NW3       29.88F
GLENWOOD       PTCLDY    23  21  93 N6        29.89S WCI  16
APPLETON         N/A     30  28  93 W5        29.90S WCI  25
BENSON         DRIZZLE   28  27  93 NE5       29.91S WCI  23
ORTONVILLE     CLOUDY    30  27  86 NW7       29.90S WCI  23
MADISON        CLOUDY    34  28  80 W7        29.90F WCI  28
WILLMAR        MIX PCPN  28  28 100 CALM      29.90S
$$
MNZ033>034-036-042>043-049>051-058-059-151200-
   Central Minnesota

CITY           SKY/WX    TMP DP  RH WIND       PRES   REMARKS
ST CLOUD       CLOUDY    20  17  88 N3        29.90F
SAUK CENTRE    CLOUDY    22  19  90 NW7       29.89S WCI  13
PAYNESVILLE    CLOUDY    23  23  97 CALM      29.90S
AITKIN         LGT SNOW  12   9  85 NW3       29.87S
PINE RIVER     CLOUDY    14  10  85 CALM      29.91F
BRAINERD       CLOUDY    17  10  74 NW9       29.89F WCI   6
STAPLES        CLOUDY    16  10  79 NW8       29.88F WCI   5
LONG PRAIRIE   CLOUDY    21  18  86 W7        29.89F WCI  13
LITTLE FALLS   CLOUDY    18  12  79 CALM      29.90S
LITCHFIELD     CLOUDY    27  25  93 CALM      29.90S
BUFFALO        CLOUDY    24  20  87 CALM      29.91F
MAPLE LAKE     CLOUDY    24  22  91 CALM      29.91S
HUTCHINSON     CLOUDY    27  25  93 CALM      29.90F
$$
MNZ037-044-045-052-053-151200-
   East Central Minnesota

CITY           SKY/WX    TMP DP  RH WIND       PRES   REMARKS
PRINCETON      CLOUDY    21  16  79 NW5       29.90S WCI  15
MORA           CLOUDY    18  12  79 NW12      29.92S WCI   5
CAMBRIDGE      MOCLDY    19  10  68 CALM      29.91S
RUSH CITY      CLOUDY    16  10  77 NW9       29.91F WCI   5
MOOSE LAKE     FLURRIES  14   7  73 NW12G17   29.87S WCI   0
HINCKLEY       FLURRIES  18  12  79 CALM      29.90F
CLOQUET        CLOUDY    12   7  79 NW8       29.85S WCI   1
MCGREGOR       CLOUDY    16  10  79 CALM      29.88S
$$
MNZ071>073-080-081-089-090-097-098-151200-
   Southwest Minnesota

CITY           SKY/WX    TMP DP  RH WIND       PRES   REMARKS
MONTEVIDEO     CLOUDY    30  28  93 N3        29.90F
GRANITE FALLS  CLOUDY    32  29  88 W10       29.91F WCI  24
CANBY          CLOUDY    33  29  85 NW10      29.92S WCI  25
MARSHALL       CLOUDY    31  27  85 W13       29.91F WCI  21
REDWOOD FALLS  CLOUDY    31  27  85 W9        29.89F WCI  23
OLIVIA         CLOUDY    30  28  93 W5        29.88F WCI  25
PIPESTONE      CLOUDY    28  27  93 W8        29.90F WCI  20
WINDOM           N/A     28  18  64 SW9       29.90F WCI  20
WORTHINGTON    CLOUDY    28  26  92 SW13      29.93F WCI  17
JACKSON        CLOUDY    30  27  86 MISG      29.92F
TRACY          CLOUDY    32  28  86 W6        29.90F WCI  26
SLAYTON        CLOUDY    29  27  90 W9        29.92S WCI  21
$$
MNZ065>067-074>077-082>085-091>093-151200-
   South Central Minnesota

CITY           SKY/WX    TMP DP  RH WIND       PRES   REMARKS
MANKATO        FLURRIES  26  23  88 W8        29.91F WCI  18
NEW ULM        CLOUDY    28  25  86 W8        29.90F WCI  20
ST JAMES       CLOUDY    28  27  93 SW12      29.92F WCI  18
FAIRMONT       FLURRIES  28  25  88 W14       29.93F WCI  17
GLENCOE        CLOUDY    25  26 100 CALM      29.90F
FARIBAULT      CLOUDY    25  21  86 S5        29.91F WCI  19
OWATONNA       CLOUDY    25  21  86 SW6       29.90F WCI  18
WASECA         CLOUDY    25  23  93 SW5       29.92F WCI  19
ALBERT LEA     CLOUDY    25  19  80 W7        29.91F WCI  17
$$
MNZ078>079-086>088-094>096-151200-
   Southeast Minnesota

CITY           SKY/WX    TMP DP  RH WIND       PRES   REMARKS
ROCHESTER      CLOUDY    22  19  89 W10       29.90F WCI  11
RED WING       FLURRIES  23  18  80 NW7       29.91F WCI  15
STANTON        CLOUDY    25  20  81 SW3       29.90F
DODGE CENTER   CLOUDY    21  19  93 W6        29.90F WCI  14
WINONA           N/A     25  18  74 W8        29.93F WCI  16
AUSTIN         CLOUDY    25  21  86 CALM      29.91F
PRESTON        CLOUDY    22  17  79 W9        29.91F WCI  12
$$
ABBREVIATIONS USED IN REMARKS
   TC - TEMPERATURES IN CELSIUS
  WCI - WIND CHILL INDEX
   HX - HEAT INDEX
  VSB - VISIBILITY
$$




USA.gov is the U.S. government's official web portal to all federal, state and local government web resources and services.